Location: Ajisawe
(8.4333°N, 4.3833°E)
Time: 10:31:56
(UTC+00:00)

N. Korean satellite - Visible Passes

Search period start: 04 March 2021 00:00
Search period end: 14 March 2021 00:00
Orbit: 451 x 502 km, 97.2° (Epoch: 03 March)

Date Brightness Start Highest point End Pass type
(mag) Time Alt. Az. Time Alt. Az. Time Alt. Az.
04 Mar 7.0 05:08:24 10° N 05:11:48 40° WNW 05:15:15 10° SSW visible
05 Mar 7.0 04:41:33 10° NNE 04:45:07 65° E 04:48:45 10° S visible
06 Mar 9.1 04:15:30 10° NE 04:18:25 23° E 04:21:21 10° SSE visible
07 Mar 7.6 05:21:46 10° NNW 05:24:46 25° WNW 05:27:48 10° SW visible
08 Mar 6.5 04:54:27 10° N 04:58:04 72° W 05:01:44 10° SSW visible
09 Mar 8.1 04:27:57 10° NNE 04:31:21 37° E 04:34:46 10° S visible
10 Mar 9.8 04:02:36 10° ENE 04:04:37 14° E 04:06:37 10° SE visible
11 Mar 7.0 05:07:29 10° N 05:10:56 41° WNW 05:14:26 10° SSW visible
12 Mar 7.0 04:40:36 10° NNE 04:44:13 64° E 04:47:51 10° S visible
13 Mar 9.1 04:14:32 10° NE 04:17:27 22° E 04:20:23 10° SSE visible
